Probability
0 0 0 0 0 0 0 0 0 0 0 0 0 0 0 0 0 0 0 0 0 0 0 0 0 0 0 0 0 0 0 0 0 0 0 0 0 0 0 0 0 0 0
0 0 0 0 0 0 0 0 0 0 0 0 0 0 0 0 0 0 0 0 0 0 0 0 0 0 0 0 0 0 0 0 0 0 0 0 0 0 0 0 0 0 0
0 0 0 0 0 0 0 0 0 0 0 0 0 0 0 0 0 0 0 0 0 0 0 0 0 0 0 0 0 0 0 0 0 0 0 0 0 0 0 0 0 0 0
0 0 0 0 0 0 0 0 0 0 0 0 0 0 0 0 0 0 0 0 0 0 0 0 0 0 0 0 0 0 0 0 0 0 0 0 0 0 0 0 0 0 0
0 0 0 0 0 0 0 0 0 0 0 0 0 0 0 0 0 0 0 0 0 0 0 0 0 0 0 0 0 0 0 0 0 0 0 0 0 0 0 0 0 0 0
0 0 0 0 0 0 0 0 0 0 0 0 0 0 0 0 0 0 0 0 0 0 0 0 0 0 0 0 0 0 0 0 0 0 0 0 0 0 0 0 0 0 0
0 0 0 0 0 0 0 0 0 0 0 0 0 0 0 0 0 0 0 0 0 0 0 0 0 0 0 0 0 0 0 0 0 0 0 0 0 0 0 0 0 0 0
0 0 0 0 0 0 0 0 0 0 0 0 0 0 0 0 0 0 0 0 0 0 0 0 0 0 0 0 0 0 0 0 0 0 0 0 0 0 0 0 0 0 0
0 0 0 0 0 0 0 0 0 0 0 0 0 0 0 0 0 0 0 0 0 0 0 0 0 0 0 0 0 0 0 0 0 0 0 0 0 0 0 0 0 0 0
0 0 0 0 0 0 0 0 0 0 0 0 0 0 0 0 0 0 0 0 0 0 0 0 0 0 0 0 0 0 0 0 0 0 0 0 0 0 0 0 0 0 0
0 0 0 0 0 0 0 0 0 0 0 0 0 0 0 0 0 0 0 0 0 0 0 0 0 0 0 0 0 0 0 0 0 0 0 0 0 0 0 0 0 0 0
0 0 0 0 0 0 0 0 0 0 0 0 0 0 0 0 0 0 0 0 0 0 0 0 0 0 0 0 0 0 0 0 0 0 0 0 0 0 0 0 0 0 0
0 0 0 0 0 0 0 0 0 0 0 0 0 0 0 0 0 0 0 0 0 0 0 0 0 0 0 0 0 0 0 0 0 0 0 0 0 0 0 0 0 0 0
0 0 0 0 0 0 0 0 0 0 0 0 0 0 0 0 0 0 0 0 0 0 0 0 0 0 0 0 0 0 0 0 0 0 0 0 0 0 0 0 0 0 0
0 0 0 0 0 0 0 0 0 0 0 0 0 0 0 0 0 0 0 0 0 0 0 0 0 0 0 0 0 0 0 0 0 0 0 0 0 0 0 0 0 0 0
0 0 0 0 0 0 0 0 0 0 0 0 0 0 0 0 0 0 0 0 0 0 0 0 0 0 0 0 0 0 0 0 0 0 0 0 0 0 0 0 0 0 0
0 0 0 0 0 0 0 0 0 0 0 0 0 0 0 0 0 0 0 0 0 0 0 0 0 0 0 0 0 0 0 0 0 0 0 0 0 0 0 0 0 0 0
0 0 0 0 0 0 0 0 0 0 0 0 0 0 0 0 0 0 0 0 0 0 0 0 0 0 0 0 0 0 0 0 0 0 0 0 0 0 0 0 0 0 0
0 0 0 0 0 0 0 0 0 0 0 0 0 0 0 0 0 0 0 0 0 0 0 0 0 0 0 0 0 0 0 0 0 0 0 0 0 0 0 0 0 0 0
0 0 0 0 0 0 0 0 0 0 0 0 0 0 0 0 0 0 0 0 0 0 0 0 0 0 0 0 0 0 0 0 0 0 0 0 0 0 0 0 0 0 0
0 0 0 0 0 0 0 0 0 0 0 0 0 0 0 0 0 0 0 0 0 0 0 0 0 0 0 0 0 0 0 0 0 0 0 0 0 0 0 0 0 0 0
0 0 0 0 0 0 0 0 0 0 0 0 0 0 0 0 0 0 0 0 0 0 0 0 0 0 0 0 0 0 0 0 0 0 0 0 0 0 0 0 0 0 0
0 0 0 0 0 0 0 0 0 0 0 0 0 0 0 0 0 0 0 0 0 0 0 0 0 0 0 0 0 0 0 0 0 0 0 0 0 0 0 0 0 0 0
0 0 0 0 0 0 0 0 0 0 0 0 0 0 0 0 0 0 0 0 0 0 0 0 0 0 0 0 0 0 0 0 0 0 0 0 0 0 0 0 0 0 0
0 0 0 0 0 0 0 0 0 0 0 0 0 0 0 0 0 0 0 0 0 0 0 0 0 0 0 0 0 0 0 0 0 0 0 0 0 0 0 0 0 0 0
0 0 0 0 0 0 0 0 0 0 0 0 0 0 0 0 0 0 0 0 0 0 0 0 0 0 0 0 0 0 0 0 0 0 0 0 0 0 0 0 0 0 0
Wind_Speed
4 4 10 12 13 13 12 12 13 13 13 14 14 14 14 14 14 14 13 14 14 14 15 15 15 15 15 15 15 15 15 15 15 15 15 14 14 14 14 14 13 9 16
7 6 10 11 13 13 12 12 12 12 12 13 13 13 13 13 13 13 13 13 13 13 14 14 14 14 14 14 14 14 14 13 14 13 13 11 12 13 13 13 12 9 14
8 7 9 11 12 13 12 11 11 12 12 12 12 12 12 12 12 12 12 12 12 12 12 12 12 12 12 12 12 12 12 12 12 12 10 5 6 12 12 12 12 12 12
9 7 8 10 12 13 12 11 11 11 11 11 11 12 12 11 11 11 11 11 11 11 11 11 11 11 10 11 10 10 10 11 11 10 5 4 4 9 11 11 11 11 11
7 7 8 11 12 12 12 11 10 10 11 10 10 11 11 11 10 10 10 9 10 10 10 10 10 9 9 9 9 9 9 9 9 7 4 4 3 7 9 9 10 10 10
7 7 8 11 12 12 11 11 10 10 10 10 10 10 10 10 10 9 9 8 8 8 8 9 8 8 7 8 8 8 8 8 7 4 4 3 3 5 7 7 7 7 7
8 6 7 11 11 11 11 11 10 9 9 9 9 9 9 9 9 8 8 7 7 7 7 7 7 6 6 6 6 6 7 7 4 3 3 2 2 4 5 6 6 6 6
8 7 6 10 10 10 10 10 9 9 9 9 9 8 9 8 8 8 7 7 6 6 6 5 5 5 5 5 5 5 4 4 3 2 2 2 1 3 4 4 4 4 4
7 6 5 6 7 9 9 9 8 8 8 8 8 7 7 7 7 6 6 5 5 5 4 4 4 4 3 3 3 3 3 3 2 0 1 1 2 1 2 2 2 2 2
6 6 6 5 5 5 6 8 8 8 8 7 7 7 6 6 5 5 4 4 4 4 4 3 3 3 2 1 2 2 2 2 1 0 1 2 3 2 1 1 1 1 1
6 6 6 6 5 5 5 6 7 7 7 7 6 7 6 3 3 3 4 4 4 4 4 4 3 2 1 0 0 1 1 0 1 1 2 4 5 4 3 3 3 3 3
10 8 7 7 6 5 4 4 3 3 4 4 4 4 3 3 3 3 4 5 5 4 4 5 4 3 1 0 1 1 0 1 1 2 3 7 7 7 7 6 5 5 5
9 8 8 8 7 6 4 4 3 2 3 3 4 4 3 3 2 2 1 2 2 3 2 2 2 1 1 1 1 1 2 2 2 2 4 8 9 10 9 9 8 8 8
8 9 9 8 7 7 6 4 4 4 3 4 4 5 4 3 3 3 2 2 2 2 2 2 2 2 2 3 3 3 3 3 3 2 4 9 11 12 12 11 11 10 10
9 10 9 9 9 8 7 5 6 5 5 5 4 5 5 4 4 4 3 3 3 3 3 3 3 3 4 4 4 4 4 5 5 4 4 9 11 13 14 14 13 13 12
10 10 8 9 9 8 8 7 6 6 5 5 5 6 6 5 4 4 4 4 4 4 4 4 4 4 4 3 4 5 5 5 5 6 5 6 11 13 15 16 15 15 14
9 8 9 9 9 9 9 8 6 5 5 6 6 6 7 6 6 5 5 5 4 4 4 4 4 4 4 4 6 6 5 6 6 6 6 5 6 10 14 17 17 16 16
7 8 8 8 9 10 9 8 6 5 6 6 6 6 8 8 7 6 5 5 5 4 4 4 4 4 5 5 5 5 5 5 7 7 7 6 6 6 9 16 17 17 17
8 7 8 8 9 9 9 7 6 5 6 6 5 6 7 8 8 7 6 5 5 5 5 5 5 5 5 6 6 5 5 6 7 7 8 8 8 7 6 10 13 14 17
6 6 7 7 8 7 6 5 4 5 6 5 6 6 7 7 8 8 6 6 6 5 5 5 6 6 5 5 5 6 6 7 7 8 9 8 7 8 8 8 7 8 15
4 6 7 7 7 6 5 5 6 7 6 5 6 6 7 7 8 8 6 6 6 6 7 7 6 6 6 3 3 5 6 8 9 8 7 7 8 8 7 8 7 6 6
5 6 6 7 7 7 7 5 4 3 4 5 4 5 7 7 7 7 8 7 7 6 7 7 6 5 4 4 3 3 5 4 4 6 6 7 8 6 7 8 7 8 6
5 6 6 7 7 7 7 4 2 2 1 2 4 5 6 7 7 7 8 7 7 7 7 8 8 8 6 5 6 5 4 5 4 3 4 5 5 5 6 6 7 8 8
6 5 5 5 6 6 7 6 7 6 6 6 5 4 4 6 7 7 7 8 7 7 8 7 8 7 7 6 5 7 7 4 3 5 3 3 4 5 6 5 6 7 7
4 3 4 4 4 5 6 7 7 6 6 3 2 3 4 5 6 7 7 7 8 7 8 8 7 8 7 8 6 4 7 7 7 7 9 5 3 4 5 6 6 6 7
2 2 2 2 3 3 5 6 7 7 6 4 3 3 4 3 4 6 6 7 8 7 8 8 8 9 8 9 8 7 6 5 6 8 10 8 7 5 5 5 6 6 6
Wind_Direction
168 167 153 142 135 130 123 120 117 114 112 110 107 106 104 101 100 97 95 93 92 92 92 90 89 88 85 82 79 78 77 75 74 73 74 76 76 76 73 70 65 60 70
150 155 150 144 139 134 128 124 123 122 119 116 113 110 107 104 102 100 99 98 97 96 96 94 93 90 88 86 83 83 81 79 76 72 69 68 74 75 73 71 71 70 70
140 147 145 143 140 137 133 131 129 127 125 123 120 116 113 109 108 106 105 104 102 101 99 98 95 93 91 91 88 86 85 81 76 69 60 42 63 76 74 71 69 70 70
141 141 142 142 141 141 139 138 136 133 130 129 125 123 120 117 114 112 110 110 108 106 105 102 98 96 94 94 92 91 89 85 77 67 47 31 38 74 74 71 68 66 67
137 137 142 143 145 146 146 144 141 138 136 134 132 129 127 124 121 119 117 115 113 111 111 108 102 98 95 95 96 95 92 88 75 60 43 30 27 74 76 73 70 67 64
139 139 146 147 150 152 152 150 148 145 144 141 138 135 132 130 127 126 124 121 118 117 116 113 107 100 96 95 96 100 97 92 74 55 40 25 17 74 80 78 77 72 68
144 144 151 152 154 157 158 158 155 154 151 149 146 144 140 137 136 135 135 133 128 125 123 122 117 105 98 96 97 100 101 96 85 65 39 14 25 76 81 78 76 72 67
149 149 154 157 158 161 163 163 163 162 160 157 155 152 149 147 148 147 144 144 142 139 135 133 129 119 103 97 97 101 104 96 87 69 35 357 5 77 83 78 72 71 64
150 151 156 159 162 165 166 166 166 166 163 160 158 156 152 152 153 151 149 153 156 154 151 149 148 139 126 110 97 92 101 105 100 56 347 326 306 90 86 71 58 67 65
159 163 163 162 163 165 169 174 173 171 167 164 161 156 155 155 155 157 156 165 171 173 173 172 174 174 156 120 96 95 103 88 96 289 297 289 293 270 245 272 306 337 344
181 183 177 172 170 169 171 179 179 177 176 172 169 168 161 155 157 161 175 184 192 191 194 201 206 211 206 354 53 84 81 116 246 266 272 274 275 267 261 256 259 267 274
193 193 190 186 181 176 179 172 176 179 179 175 171 171 164 163 172 176 193 202 206 209 216 224 226 231 243 325 319 343 160 233 242 256 264 270 269 265 263 260 259 262 263
196 196 197 194 188 184 183 177 180 181 181 183 183 180 171 167 175 181 186 209 216 218 224 249 259 242 234 235 255 259 249 246 243 255 265 270 270 266 266 263 261 262 262
199 205 202 197 194 194 189 189 188 192 194 197 194 186 176 180 190 193 197 200 202 205 213 223 231 241 243 244 245 250 253 248 245 247 257 263 266 266 266 267 264 262 262
209 211 206 199 200 197 196 198 199 203 204 203 197 195 190 192 200 202 207 208 208 204 210 219 229 240 247 250 247 245 251 251 250 246 255 260 262 264 265 266 267 265 261
216 214 207 203 201 197 201 204 205 205 204 202 204 204 200 201 202 204 210 213 216 213 214 218 224 232 242 246 253 250 251 252 250 248 246 257 259 260 261 262 265 266 264
218 213 208 206 200 200 205 207 205 203 202 208 210 206 206 206 207 208 213 218 219 214 216 223 231 235 244 247 253 253 251 250 250 248 246 244 251 255 256 258 261 263 265
215 213 211 205 201 204 206 205 205 203 205 212 211 208 210 211 209 209 216 223 215 207 212 222 227 236 245 248 254 255 251 253 253 251 247 243 240 245 251 255 257 259 262
216 214 210 206 205 205 205 203 204 203 209 212 210 212 213 212 211 213 220 222 208 210 216 223 227 228 243 249 253 256 252 252 253 252 249 245 240 240 240 252 252 253 257
220 215 213 210 210 204 197 198 203 210 216 215 215 218 214 214 213 216 224 221 210 215 221 223 231 230 237 246 258 263 258 252 248 247 249 247 241 238 236 239 243 247 249
215 210 212 209 208 192 189 198 208 220 220 220 220 218 215 216 213 215 224 221 215 221 225 222 225 234 237 223 255 275 265 247 246 245 241 241 243 240 234 233 234 235 246
216 214 212 212 207 198 200 195 195 197 212 217 216 219 218 216 215 216 221 223 218 223 227 224 220 230 231 198 215 268 293 295 262 245 239 239 244 240 237 234 231 231 232
220 217 212 210 204 202 198 178 160 154 183 207 221 226 224 220 219 220 223 224 222 221 229 227 221 227 240 220 206 218 251 267 300 281 249 242 245 244 245 240 234 234 233
228 221 212 208 201 198 187 182 189 200 216 223 223 226 228 221 224 225 226 225 228 228 232 232 225 228 233 240 221 220 230 229 260 295 278 250 246 245 248 246 242 240 235
225 218 215 206 201 193 185 190 194 210 224 231 220 226 229 227 227 228 229 230 233 234 236 236 231 229 229 236 233 220 230 236 232 254 277 278 264 240 240 240 240 241 236
224 213 207 193 201 191 185 189 195 207 218 223 231 236 241 240 237 235 235 234 237 239 240 240 236 233 234 236 237 231 225 229 231 238 258 269 271 256 237 233 234 237 236